Regional Weather Roundup
Issued by NWS Charleston, SC

Current Version | Previous Version | Text Only | Print | Product List | Glossary On
Versions: 1 2 3 4 5 6 7 8 9 10 11 12 13 14 15 16 17 18 19 20 21 22 23 24 25 26 27 28 29 30 31 32 33 34 35 36 37 38 39 40 41 42 43 44 45 46 47 48 49 50
000 ASUS42 KCHS 280610 RWRCHS REGIONAL WEATHER ROUNDUP NATIONAL WEATHER SERVICE CHARLESTON SC 100 AM EST FRI NOV 28 2014 NOTE: "FAIR" INDICATES FEW OR NO CLOUDS BELOW 12,000 FEET WITH NO SIGNIFICANT WEATHER AND/OR OBSTRUCTIONS TO VISIBILITY. NOT ALL STATIONS ARE QUALITY CONTROLLED BY THE NATIONAL WEATHER SERVICE. USE DATA WITH CAUTION...ESPECIALLY DEWPOINT OBSERVATIONS. SCZ027-030-031-034>040-042>050-280700- ...SOUTHEAST SOUTH CAROLINA... CITY SKY/WX TMP DP RH WIND PRES REMARKS N CHARLESTON CLEAR 37 31 78 NW8 30.30S WCI 31 6HR MIN TEMP: 36; 6HR MAX TEMP: 47; WATERFRONT PRK N/A 43 N/A N/A NW10G16 N/A MOUNT PLEASANT FAIR 39 34 81 CALM 30.29S JOHNS ISLAND CLEAR 41 37 87 NW9 30.29F PINOPOLIS N/A 46 34 61 N15 30.21R MONCKS CORNER FAIR 45 36 70 N7 30.29S SUMMERVILLE FAIR 37 34 87 CALM 30.31S BEAUFORT MCAS CLEAR 41 31 67 NW9 30.32R 6HR MIN TEMP: 40; 6HR MAX TEMP: 46; BEAUFORT ARPT FAIR 43 34 70 NW10G16 30.31R HILTON HEAD IS CLEAR 43 32 65 NW7 30.32S WALTERBORO CLEAR 37 32 81 CALM 30.32R ALLENDALE FAIR 36 32 87 CALM 30.32S ...SOUTHERN MIDLANDS AND PEE DEE... CITY SKY/WX TMP DP RH WIND PRES REMARKS GEORGETOWN NOT AVBL KINGSTREE NOT AVBL ORANGEBURG CLEAR 36 29 75 CALM 30.30F 6HR MIN TEMP: 36; 6HR MAX TEMP: 48; BARNWELL N/A 36 32 87 CALM 30.32F AIKEN FAIR 34 30 86 NW3 30.34S MANNING NOT AVBL COLUMBIA CLEAR 41 25 53 NW6 30.30F 6HR MIN TEMP: 35; 6HR MAX TEMP: 50; SUMTER CLEAR 36 28 71 NW6 30.29S WCI 31 6HR MIN TEMP: 36; 6HR MAX TEMP: 47; FLORENCE CLEAR 36 29 75 NW7 30.29S WCI 30 6HR MIN TEMP: 35; 6HR MAX TEMP: 46; MYRTLE BEACH CLEAR 37 32 81 NW6 30.27F WCI 33 N MYRTLE BEACH CLEAR 38 32 79 NW3 30.26S 6HR MIN TEMP: 38; 6HR MAX TEMP: 45; $$ GAZ063-065-086>088-099>101-113>116-118-119-134>141-150-280700- ...SOUTHEAST GEORGIA... CITY SKY/WX TMP DP RH WIND PRES REMARKS SAVANNAH ARPT CLEAR 41 30 65 NW8 30.33S 6HR MIN TEMP: 41; 6HR MAX TEMP: 47; HUNTER AAF CLEAR 40 31 72 NW8 30.30S WCI 34 6HR MIN TEMP: 39; 6HR MAX TEMP: 46; FORT STEWART CLEAR 40 29 65 NW8 30.32S WCI 35 6HR MIN TEMP: 40; 6HR MAX TEMP: 46; STATESBORO NOT AVBL SYLVANIA CLEAR 39 33 81 NW6 30.34S WCI 34 CLAXTON FAIR 37 18 44 W5 30.35S WCI 34 ...CSRA...CENTRAL AND FAR SOUTHEAST GEORGIA... CITY SKY/WX TMP DP RH WIND PRES REMARKS THOMSON CLEAR 33 32 96 CALM 30.38R AUGUSTA-BUSH CLEAR 37 27 67 NW7 30.33F WCI 32 6HR MIN TEMP: 37; 6HR MAX TEMP: 46; AUGUSTA-DANIEL CLEAR 39 27 62 NW8 30.33R WCI 33 SWAINSBORO FAIR 34 34 100 CALM 30.35S VIDALIA CLEAR 37 32 81 NW5 30.35S WCI 34 HAZLEHURST FAIR 38 32 78 NW3 30.36R ALMA CLEAR 39 29 67 NW8 30.35S WCI 33 6HR MIN TEMP: 39; 6HR MAX TEMP: 47; WAYCROSS CLEAR 40 34 80 N5 30.35F WCI 36 JESUP FAIR 43 34 70 NW3 30.34F BAXLEY FAIR 41 32 70 NW7 30.35S BRUNSWICK CLEAR 37 32 81 CALM 30.34S SAINT SIMONS CLEAR 42 31 64 NW7 30.34S 6HR MIN TEMP: 42; 6HR MAX TEMP: 50; $$ SCZ027-028-034-036>038-045-046-048>050-GAZ119-141-280700- ...LAKE AND SUPPLEMENTAL COASTAL OBSERVATIONS... STATION/POSITION TIME TEMP WIND PRES WAVE SWELL AIR SEA DIR/SP/G HT/PER HT/PER/DIR (UTC) (F) (DEG/KT/KT) (MB) (FT/S) (FT/S/D) UPR LAKE MARION NOT AVBL WINYAH BAY 0500 41 320/ 5 1025.0S LAKE MURRAY 0500 38 300/ 4/ 7 1025.7S ACE BASIN NERRS 0500 41 320/ 3 1026.0R FORT PULASKI 0600 42 310/ 12/ 15 1026.8R SAPELO ISLAND 0500 44 320/ 10 1027.0S $$ ANZ835-935-AMZ111-154-330-350-352-354-370-450-454-472-280700- ...C-MAN AND BUOY OBSERVATIONS... STATION/POSITION TIME TEMP WIND PRES WAVE SWELL AIR SEA DIR/SP/G HT/PER HT/PER/DIR (UTC) (F) (DEG/KT/KT) (MB) (FT/S) (FT/S/D) FOLLY BEACH CMAN 0500 43 310/ 7/ 10 1026.0R BUOY 41004 0600 53 72 340/ 19/ 23 1023.1F 5/ 6 2/ 9 BUOY 41008 0600 49 63 340/ 21/ 27 1025.6S 5/ 5 CAPERS NEARSHORE 0500 46 340/ 19/ 23 N/A FRIPP NEARSHORE NOT AVBL STATION/POSITION TIME TEMP WIND PRES WAVE SWELL AIR SEA DIR/SP/G HT/PER HT/PER/DIR (UTC) (F) (DEG/KT/KT) (MB) (FT/S) (FT/S/D) 5E ST. MARYS GA 0600 62 N/A 4/ 5 FRYING PAN BUOY 0600 49 70 350/ 21/ 29 1023.4R 6/ 5 2/180/ 9 BUOY 41025 0600 48 330/ 21/ 25 1020.2F 7/ 5 2/ 80/ 9 CAPE LOOKOUT NC 0500 44 330/ 19/ 21 1022.2R BUOY 41002 0506 60 73 320/ 25/ 29 1018.2F 12/ 9 2/110/13 BUOY 41010 0600 64 77 330/ 17/ 23 1021.4S 9/ 8 7/340/ 8 ST AUGUSTINE FL 0600 47 340/ 20/ 23 1026.4F $$

USA.gov is the U.S. government's official web portal to all federal, state and local government web resources and services.